Weather History for Chillicothe, MO

Change the Weather History Date:

Monday, February 11, 2013

  Actual Average (KIRK) Record (KIRK)
Temperature  
Mean Temperature 37 °F 29 °F  
Max Temperature 46 °F 38 °F 68 °F (1932)
Min Temperature 28 °F 19 °F -17 °F (1981)
Degree Days  
Heating Degree Days 28 36  
Month to date heating degree days 411  
Since 1 July heating degree days 3958  
Cooling Degree Days 0 0  
Month to date cooling degree days 0  
Year to date cooling degree days 0  
Moisture  
Dew Point 23 °F    
Average Humidity 59    
Maximum Humidity 81    
Minimum Humidity 40    
Precipitation  
Precipitation 0.00 in 0.06 in 0.76 in (2009)
Month to date precipitation 0.61  
Year to date precipitation 1.88  
Sea Level Pressure  
Sea Level Pressure 30.09 in    
Wind  
Wind Speed 10 mph (WNW)    
Max Wind Speed 15 mph    
Max Gust Speed 28 mph    
T = Trace of Precipitation, MM = Missing Value Source: NWS Daily Summary

Daily Weather History Graph

Daily Weather History Graph

Search for Another Location

Airport:

Trip Planner

Search our weather history database for the weather conditions in past years. The results will help you decide how hot, cold, wet, or windy it might be!

Date:

Astronomy

Feb. 11, 2013 Rise Set
Actual Time 7:11 AM CST 5:46 PM CST
Civil Twilight 6:43 AM CST 6:14 PM CST
Nautical Twilight 6:11 AM CST 6:45 PM CST
Astronomical Twilight 5:40 AM CST 7:17 PM CST
Moon 7:36 AM CST (2/11) 7:43 PM CST (2/11)
Length of Visible Light 11h 30m
Length of Day
10h 34m
Waxing Crescent, 3% of the Moon is Illuminated
Feb 11
Waxing Crescent
Feb 17
First Quarter
Feb 25
Full
Mar 4
Last Quarter
Mar 11
New

Hourly Weather History & Observations

Time (CST) Temp. Windchill Dew Point Humidity Pressure Visibility Wind Dir Wind Speed Gust Speed Precip Events Conditions
12:52 AM 36.0 °F 27.1 °F 21.9 °F 57% 29.86 in - WNW 13.8 mph 27.6 mph N/A   Unknown
1:52 AM 37.0 °F 31.0 °F 24.1 °F 59% 29.89 in - WNW 8.1 mph 17.3 mph N/A   Unknown
2:52 AM 37.9 °F 30.5 °F 25.0 °F 60% 29.92 in - West 11.5 mph 24.2 mph N/A   Unknown
3:52 AM 37.0 °F 28.5 °F 23.0 °F 57% 29.94 in - WNW 13.8 mph 23.0 mph N/A   Unknown
4:52 AM 35.1 °F 25.9 °F 21.9 °F 59% 29.98 in - West 13.8 mph 23.0 mph N/A   Unknown
5:52 AM 34.0 °F 25.5 °F 21.9 °F 61% 30.00 in - West 11.5 mph 21.9 mph N/A   Unknown
6:52 AM 33.1 °F 24.4 °F 21.0 °F 61% 30.04 in - West 11.5 mph 21.9 mph N/A   Unknown
7:52 AM 33.1 °F 25.5 °F 21.9 °F 64% 30.08 in - West 9.2 mph 17.3 mph N/A   Unknown
8:52 AM 35.1 °F 27.4 °F 23.0 °F 61% 30.11 in - West 10.4 mph 25.3 mph N/A   Unknown
9:52 AM 37.0 °F 28.9 °F 23.0 °F 57% 30.12 in - West 12.7 mph 26.5 mph N/A   Unknown
10:52 AM 39.0 °F 31.8 °F 24.1 °F 55% 30.13 in - NW 11.5 mph - N/A   Unknown
11:52 AM 42.1 °F 37.7 °F 25.0 °F 51% 30.14 in - Variable 6.9 mph 17.3 mph N/A   Unknown
12:52 PM 44.1 °F 37.1 °F 24.1 °F 45% 30.13 in - West 15.0 mph 23.0 mph N/A   Unknown
1:52 PM 46.0 °F 40.2 °F 24.1 °F 42% 30.12 in - WNW 12.7 mph 21.9 mph N/A   Unknown
2:52 PM 46.0 °F 40.6 °F 24.1 °F 42% 30.11 in - West 11.5 mph 18.4 mph N/A   Unknown
3:52 PM 46.0 °F 41.0 °F 23.0 °F 40% 30.12 in - West 10.4 mph 19.6 mph N/A   Unknown
4:52 PM 45.0 °F 38.9 °F 24.1 °F 44% 30.12 in - NW 12.7 mph 18.4 mph N/A   Unknown
5:52 PM 42.1 °F 37.7 °F 24.1 °F 49% 30.14 in - WNW 6.9 mph - N/A   Unknown
6:52 PM 37.9 °F 35.5 °F 25.0 °F 60% 30.15 in - NW 3.5 mph - N/A   Unknown
7:52 PM 32.0 °F - 24.1 °F 73% 30.17 in - Calm Calm - N/A   Unknown
8:52 PM 28.0 °F - 23.0 °F 81% 30.19 in - Calm Calm - N/A   Unknown
9:52 PM 30.0 °F - 24.1 °F 79% 30.19 in - Calm Calm - N/A   Unknown
10:52 PM 28.9 °F 23.9 °F 23.0 °F 78% 30.21 in - North 4.6 mph - N/A   Unknown
11:52 PM 28.9 °F - 21.9 °F 75% 30.21 in - Calm Calm - N/A   Unknown